Location: Aultman
(40.9284°N, 81.4173°W)
Time: 08:57:05
(UTC+00:00)

Cosmos 1833 Rocket - Pass Details

Date: 24 January 2021
Orbit: 833 x 839 km, 71.0° (Epoch: 02 March)

Event Time Altitude Azimuth Distance (km) Brightness Sun altitude
Rises 23:30:25 0° 347° (NNW) 3,389 5.8 -10.9°
Reaches altitude 10° 23:33:25 10° 2° (N) 2,452 4.9 -11.5°
Maximum altitude 23:37:46 23° 53° (NE) 1,730 3.8 -12.3°
Enters shadow 23:40:21 17° 89° (E) 2,014 4.0 -12.7°
